SCP
0 0 0 0 0 0 -0 -0 -0 -0 0 0 0 0 0 0 0 0 0 -0 -0 -0 -0 -0 0 0 0 0 0 0 0 0 0 0 0 0 0 0 0 0 0 0 0 0 0 0 0 0 0
0 0 0 0 0 0 -0 -0 0 0 0 0 0 0 0 0 0 0 0 -0 -0 -0 -0 0 0 0 0 0 0 0 0 0 0 0 0 0 0 0 0 0 0 0 0 0 0 0 0 0 0
0 0 0 0 0 0 0 0 0 0 0 0 0 0 0 0 0 0 0 0 0 -0 -0 0 0 0 0 0 0 0 0 0 0 0 0 0 0 0 0 0 0 0 0 0 0 0 0 0 0
0 0 0 0 0 0 0 0 0 0 0 0 0 0 0 0 0 0 0 0 0 0 0 0 0 0 0 0 0 0 0 0 0 0 0 0 0 0 0 0 0 0 0 0 0 0 0 0 0
0 0 0 0 0 0 0 0 0 0 0 0 0 0 0 0 0 0 0 0 0 0 0 0 0 0 0 0 0 0 0 0 0 0 0 0 0 0 0 0 0 0 0 0 0 0 0 0 0
0 0 0 0 0 0 0 0 0 0 0 0 0 0 0 0 0 0 0 0 0 0 0 0 0 0 0 0 0 0 0 0 0 0 0 0 0 0 0 0 0 0 0 0 0 0 0 0 0
0 0 0 0 0 0 0 0 0 0 0 0 0 0 0 0 0 0 0 0 0 0 0 0 0 0 0 0 0 0 0 0 0 0 0 0 0 0 0 0 0 0 0 0 0 0 0 0 0
0 0 0 0 0 0 0 0 0 0 0 0 0 0 0 0 0 0 0 0 0 0 0 0 0 0 0 0 0 0 0 0 0 0 0 0 0 0 0 0 0 0 0 0 0 0 0 0 0
0 0 0 0 0 0 0 0 0 0 0 0 0 0 0 0 0 0 0 0 0 0 0 0 0 0 0 0 0 0 0 0 0 0 0 0 0 0 0 0 0 0 0 0 0 0 0 0 0
0 0 0 0 0 0 0 0 0 0 0 0 0 0 0 0 0 0 0 0 0 0 0 0 0 0 0 0 0 0 0 0 0 0 0 0 0 0 0 0 0 0 0 0 0 0 0 0 0
0 0 0 0 0 0 0 0 0 0 0 0 0 0 0 0 0 0 0 0 0 0 0 0 0 0 0 0 0 0 0 0 0 0 0 0 0 0 0 0 0 0 0 0 0 0 0 0 0
0 0 0 0 0 0 0 0 0 0 0 0 0 0 0 0 0 0 0 0 0 0 0 0 0 0 0 0 0 0 0 0 0 -0 -0 0 0 0 0 0 0 0 0 0 0 0 0 0 0
0 0 0 0 0 0 0 0 0 0 0 0 0 0 0 0 0 0 0 0 0 0 0 0 0 0 0 0 0 0 0 0 0 -0 -0 -0 0 0 0 0 0 0 0 0 0 0 0 0 0
0 0 0 0 0 0 0 0 0 0 0 0 0 0 0 0 0 0 0 0 0 0 0 0 0 0 0 0 0 0 0 0 0 -0 -0 -0 0 0 0 0 0 0 0 0 0 0 0 0 0
0 0 0 0 0 0 0 0 0 0 0 0 0 0 0 0 0 0 0 0 0 0 0 0 0 0 0 0 0 0 0 0 0 0 0 0 0 0 0 0 0 0 0 0 0 0 0 0 0
0 0 0 0 0 0 0 0 0 0 0 0 0 0 0 0 0 0 0 0 0 0 0 0 0 0 0 0 0 0 0 0 0 0 0 0 0 0 0 0 0 0 0 0 0 0 0 0 0
0 0 0 0 0 0 0 0 0 0 0 0 0 0 0 0 0 0 0 0 0 0 0 0 0 0 0 0 0 0 0 0 0 0 0 0 0 0 0 0 0 0 0 0 0 0 0 0 0
0 0 0 0 0 0 0 0 0 0 0 0 0 0 0 0 0 0 0 0 0 0 0 0 0 0 0 0 0 0 0 0 0 0 0 0 0 0 0 0 0 0 0 0 0 0 0 0 0
0 0 0 0 0 0 0 0 0 0 0 0 0 0 0 -0 0 0 0 0 0 0 0 0 0 0 0 0 0 0 0 0 0 0 0 0 0 0 0 0 0 0 0 0 0 0 0 0 0
0 0 0 0 0 0 0 0 0 0 0 0 0 0 0 -0 0 0 0 0 0 0 0 0 0 0 0 0 0 0 0 0 0 0 0 0 0 0 0 0 0 0 0 0 0 0 0 0 0
0 0 0 0 0 0 0 0 0 0 0 0 0 0 -0 0 0 0 0 0 0 0 0 0 -0 -0 0 0 0 0 0 0 0 0 0 0 0 0 0 0 0 0 0 0 0 0 0 0 0
0 0 0 0 0 0 0 0 0 0 0 0 0 0 -0 0 0 0 0 0 0 0 0 0 0 0 0 0 0 0 0 0 0 0 0 0 0 0 0 0 0 0 0 0 0 0 0 0 0
0 0 0 0 0 0 0 0 0 0 0 0 0 0 0 0 0 0 0 0 0 0 0 0 0 0 0 0 0 0 0 0 0 0 0 0 0 0 0 0 0 0 0 0 0 0 0 0 0
0 0 0 0 0 0 0 0 0 0 0 0 0 0 0 0 0 0 0 0 0 0 0 0 0 0 0 0 0 0 0 0 0 0 0 0 0 0 0 0 0 0 0 0 0 0 0 0 0
0 0 0 0 0 0 0 0 0 0 0 0 0 0 0 0 0 0 0 0 0 0 0 0 0 0 0 0 0 0 0 0 0 0 0 0 0 0 0 0 0 0 0 0 0 0 0 0 0
0 0 0 0 0 0 0 0 0 0 0 0 0 0 0 0 0 0 0 0 0 0 0 0 0 0 0 0 0 0 0 0 0 0 0 0 0 0 0 0 0 0 0 0 0 0 0 0 0
0 0 0 0 0 0 0 0 0 0 0 0 0 0 0 0 0 0 0 0 0 0 0 0 0 0 0 0 0 0 0 0 0 0 0 0 0 0 0 0 0 0 0 0 0 0 0 0 0
0 0 0 0 0 0 0 0 0 0 0 0 0 0 0 0 0 0 0 0 0 0 0 0 0 0 0 0 0 0 0 0 0 0 0 0 0 0 0 0 0 0 0 0 0 0 0 0 0
0 0 0 0 0 0 0 0 0 0 0 0 0 0 0 0 0 0 0 0 0 0 0 0 0 0 0 0 0 0 0 0 0 0 0 0 0 0 0 0 0 0 0 0 0 0 0 0 0
0 0 0 0 0 0 0 0 0 0 0 0 0 0 0 0 0 0 0 0 0 0 0 0 0 0 0 0 0 0 0 0 0 0 0 0 0 0 0 0 0 0 0 0 0 0 0 0 0
Wind_Speed
6 4 3 3 5 5 4 5 3 3 4 3 5 6 6 5 2 1 1 3 4 5 4 6 9 9 9 9 8 8 8 8 8 8 8 7 7 6 6 5 5 4 4 4 3 3 3 3 3
4 3 3 4 5 4 4 5 5 5 2 2 5 6 6 5 4 2 1 1 4 5 4 5 8 9 8 8 8 7 7 7 7 7 7 7 6 6 6 5 5 4 4 4 3 3 2 2 2
5 2 3 4 4 2 2 4 3 4 7 4 4 5 5 4 4 2 1 3 4 3 3 4 9 8 8 8 8 7 7 7 7 7 7 7 6 6 5 5 4 4 4 4 3 2 2 1 1
3 3 4 6 5 2 1 3 5 4 6 8 4 5 5 5 4 3 2 3 3 2 2 3 7 8 8 8 8 8 8 7 7 7 7 7 7 6 6 6 5 5 4 4 3 3 2 1 0
3 4 6 4 2 1 2 3 4 4 4 7 5 4 4 7 7 6 5 3 2 1 0 1 4 5 6 7 8 8 8 8 8 8 8 7 8 7 7 7 6 6 5 5 4 4 4 2 1
4 4 5 2 1 1 2 4 4 6 5 6 6 4 3 6 9 6 5 5 4 3 2 3 3 4 5 7 8 8 8 9 9 9 9 9 9 9 8 7 7 7 6 6 5 4 4 3 2
4 4 4 3 2 1 1 2 5 4 6 6 5 3 2 6 8 6 6 6 6 5 3 3 4 3 4 5 6 8 8 9 10 10 10 10 9 9 9 8 8 8 8 7 6 5 5 4 3
4 5 4 2 2 1 2 3 4 6 4 5 5 5 4 5 6 6 7 8 7 6 6 5 5 5 4 5 7 7 8 9 10 10 10 10 10 10 9 9 9 9 9 9 8 7 7 6 5
4 5 2 3 4 2 2 3 4 4 5 5 6 4 4 5 6 7 7 7 7 7 6 6 6 5 5 5 6 7 8 8 8 8 10 9 5 4 5 8 9 10 10 10 9 8 7 6 4
4 4 3 2 3 5 3 4 3 4 5 5 5 6 6 6 7 8 7 7 7 7 6 5 6 5 5 5 4 3 3 4 4 3 4 3 3 4 6 7 11 11 11 11 10 10 8 5 1
4 4 3 3 4 5 4 3 3 4 4 2 2 3 5 7 7 7 6 4 4 4 5 5 5 5 5 4 3 2 2 3 3 4 4 3 3 3 4 3 5 5 7 5 5 5 3 2 2
5 4 4 4 4 4 4 4 4 3 3 2 3 3 4 6 6 5 5 5 5 5 6 6 5 5 5 4 3 3 2 2 2 3 4 3 2 3 3 3 3 3 2 3 3 2 3 3 3
4 4 4 7 9 7 7 5 5 3 2 3 5 6 5 5 4 4 4 4 5 5 7 7 6 5 5 4 4 3 3 3 3 3 3 3 3 4 4 3 3 4 3 3 3 3 4 4 3
5 7 6 6 6 3 6 4 4 2 2 4 5 5 4 4 4 4 5 5 5 6 6 6 6 5 5 4 4 4 4 4 3 3 4 4 3 4 4 4 4 4 4 3 3 4 4 3 3
6 7 5 2 3 3 5 4 1 1 4 4 4 3 4 4 4 4 4 5 5 6 6 6 7 5 6 6 5 4 4 4 3 3 4 4 4 4 4 4 4 4 4 4 3 3 3 3 3
4 4 2 3 3 3 3 2 1 2 5 4 2 2 3 3 3 4 4 5 5 6 6 7 7 7 7 6 5 4 4 4 4 3 4 4 5 4 4 4 4 4 3 3 3 3 3 3 2
2 2 3 2 4 3 3 3 2 2 4 3 1 1 2 4 4 5 5 5 6 6 6 7 7 7 7 7 6 5 4 4 4 3 3 4 4 4 3 4 3 3 3 3 4 3 3 3 3
5 4 3 4 3 4 3 2 2 2 3 2 1 1 3 4 5 5 5 6 6 6 6 6 7 7 7 6 5 4 4 3 3 3 4 4 4 4 3 3 4 3 3 4 4 3 3 2 2
4 4 2 1 2 3 3 3 2 2 2 2 1 2 3 4 5 5 5 6 6 7 7 7 7 7 6 4 4 4 4 4 4 3 4 4 4 4 3 3 3 4 4 5 5 4 4 3 2
4 4 2 2 3 3 2 1 1 2 2 3 3 3 3 4 5 6 6 6 6 7 7 7 7 8 7 5 4 3 4 4 4 4 4 4 4 4 3 3 3 4 4 5 5 4 3 3 4
2 3 3 3 3 4 3 3 3 2 1 2 2 2 3 4 5 6 6 6 7 7 8 7 8 8 7 7 4 4 3 3 3 4 4 4 4 4 4 4 3 3 4 4 6 6 6 4 3
1 1 3 4 3 1 1 4 5 3 2 3 4 3 4 5 5 6 6 7 8 7 7 7 7 8 7 7 5 5 4 4 5 4 4 5 4 4 4 4 4 3 3 4 5 6 5 5 4
2 3 3 2 4 2 1 1 7 0 4 6 5 5 5 5 5 6 6 7 7 7 7 7 7 7 7 7 6 6 5 4 5 5 5 5 4 4 3 3 3 3 3 4 4 4 5 5 5
4 6 6 5 5 1 2 3 7 4 6 4 4 4 5 5 5 6 6 6 6 7 6 7 7 7 7 7 7 6 7 7 7 7 6 5 4 3 3 3 3 3 3 4 4 4 5 5 6
6 6 5 6 4 4 2 3 8 5 6 5 5 5 5 5 5 6 7 7 7 8 7 7 7 8 8 7 7 7 7 7 6 6 5 5 4 3 4 3 3 3 3 4 4 4 5 6 6
3 6 6 2 3 5 3 4 7 3 2 3 3 3 4 5 5 6 6 6 6 7 7 7 7 7 8 8 7 7 7 5 4 5 5 4 4 4 4 4 3 3 3 3 3 3 4 4 5
3 2 4 6 1 3 5 6 7 1 2 2 3 3 5 5 6 6 6 6 6 6 6 6 7 7 7 8 8 7 7 6 6 6 5 4 4 4 5 4 4 3 2 2 2 2 3 4 5
4 7 4 4 1 3 7 5 5 5 7 6 5 6 6 5 5 6 5 5 5 5 5 5 5 6 6 7 6 6 7 7 6 5 6 5 5 5 5 5 4 3 2 1 1 1 2 3 3
3 4 5 4 4 4 4 8 6 6 6 7 8 7 6 6 6 5 5 5 5 5 4 5 5 6 6 6 6 7 7 7 7 6 6 6 5 5 5 5 4 3 2 1 0 1 2 3 3
2 4 6 3 2 3 3 10 5 5 6 6 7 6 5 5 5 5 5 5 5 5 5 5 5 5 5 6 6 6 7 7 7 7 7 6 6 5 5 4 4 4 3 2 1 0 1 2 2
Wind_Direction
148 127 103 66 50 49 25 342 342 20 45 35 45 64 78 60 61 104 319 127 140 147 161 169 170 169 170 171 171 168 165 163 162 162 160 160 160 160 160 159 156 154 151 144 140 134 126 111 93
122 122 80 61 71 56 3 347 18 26 70 90 49 51 60 53 39 54 23 144 141 150 153 168 177 175 175 177 179 178 177 174 173 173 172 172 172 172 173 171 170 171 169 165 157 154 140 118 91
126 89 82 65 67 81 17 345 9 34 36 37 58 49 54 28 0 336 284 153 137 146 151 180 183 182 182 184 186 186 187 185 186 185 185 186 186 185 184 185 186 187 186 182 180 178 168 140 99
106 52 56 64 63 25 17 323 326 351 28 24 53 57 58 21 349 354 47 116 127 135 149 203 192 193 193 195 195 196 196 197 198 198 198 198 198 196 198 201 203 204 202 200 201 205 207 204 167
69 76 64 59 53 16 13 349 2 38 41 18 41 66 41 4 15 42 55 63 95 88 34 288 213 210 211 210 210 209 208 207 209 209 209 208 210 209 209 212 215 215 215 215 216 222 223 228 238
63 69 80 95 71 28 16 7 15 32 33 18 23 68 50 8 17 24 41 45 49 55 29 349 280 252 242 235 230 228 225 222 219 219 220 218 218 219 219 220 222 223 225 225 224 230 233 236 246
99 85 107 139 129 50 46 38 33 22 35 18 358 61 43 14 10 18 41 45 44 39 27 356 341 323 292 274 259 249 246 240 235 232 229 227 226 227 227 227 228 230 231 231 231 234 241 246 252
116 97 91 139 157 129 19 70 56 34 36 15 22 51 27 355 4 35 42 39 35 32 22 7 348 346 334 317 295 284 275 263 254 247 242 237 234 232 233 234 235 237 236 235 235 236 240 243 249
87 79 133 194 177 150 44 88 69 45 55 45 44 49 34 13 30 43 38 29 25 23 14 7 354 350 339 317 313 308 296 285 276 262 256 252 242 236 239 240 240 242 243 240 238 237 240 242 249
78 112 180 168 147 131 89 76 93 71 48 44 48 39 39 42 44 45 37 25 15 6 359 1 352 344 333 324 326 315 301 292 282 271 263 252 237 232 234 238 245 247 248 247 243 238 239 240 220
81 124 126 97 116 119 105 81 63 108 63 47 67 31 30 42 43 43 34 21 2 348 348 347 339 336 335 328 323 319 309 301 285 275 260 251 243 236 235 226 245 252 252 247 246 241 217 193 194
91 62 93 122 118 98 106 109 80 67 113 102 86 67 50 46 38 28 18 4 352 352 344 341 341 338 335 330 319 310 309 306 301 287 274 256 247 236 226 221 220 222 228 227 217 208 207 204 207
91 95 62 87 87 89 92 90 102 86 87 77 75 66 59 51 33 16 6 0 355 350 341 336 334 339 333 329 318 321 306 298 292 286 274 252 247 248 240 231 222 217 214 216 214 206 208 214 214
98 95 95 86 86 86 101 89 95 121 100 79 69 59 50 37 17 8 2 355 349 342 335 329 328 333 334 326 314 304 301 297 295 289 280 265 244 243 241 238 229 222 215 212 209 207 205 210 208
95 89 75 89 99 126 105 61 60 141 105 83 67 53 36 18 11 360 343 335 332 329 328 328 326 338 333 322 313 310 297 296 290 285 282 273 258 246 239 234 230 224 213 209 206 205 194 204 209
84 95 139 212 158 156 124 173 217 127 114 98 69 39 17 351 345 336 336 337 334 331 329 326 334 333 326 319 309 302 296 293 287 286 284 278 268 251 240 235 233 218 204 198 198 187 190 203 197
86 165 209 199 182 151 153 189 193 123 125 121 86 12 347 336 337 338 340 338 334 330 325 324 326 327 324 319 310 300 295 291 288 288 284 280 276 262 240 236 235 218 207 202 205 188 186 192 196
204 204 205 204 183 139 153 178 150 118 134 144 150 325 327 326 318 324 333 331 331 328 325 323 326 326 323 317 314 308 304 298 293 289 285 285 278 270 251 240 232 216 209 208 205 191 178 179 180
160 160 172 188 127 128 163 175 190 147 138 166 232 285 303 308 310 326 329 330 332 331 331 329 330 328 331 327 325 319 314 309 303 292 289 289 284 276 258 251 234 218 215 211 203 192 182 184 155
108 124 124 70 65 106 133 232 249 197 200 212 229 260 289 313 325 327 325 327 328 325 326 328 330 328 330 323 308 287 287 289 283 288 294 287 286 280 269 250 238 225 219 215 205 191 177 184 170
95 154 174 155 72 60 82 323 255 246 212 224 242 261 290 302 308 314 320 320 325 326 325 328 326 327 327 325 319 314 309 302 308 311 307 298 289 276 265 252 240 229 219 217 210 197 188 185 183
180 213 147 135 117 260 133 284 278 242 256 255 262 279 288 297 301 307 316 320 321 319 322 325 327 329 330 333 334 333 326 316 305 303 297 301 292 284 270 255 242 232 225 222 216 202 193 179 180
143 64 83 108 124 65 34 224 288 258 257 258 257 265 275 285 295 304 308 309 312 316 324 328 332 332 335 340 339 335 328 312 309 310 311 312 309 298 287 266 250 241 228 221 215 204 198 190 185
105 69 56 49 71 354 235 186 279 232 226 243 241 254 271 285 299 305 306 313 315 319 328 334 337 334 337 340 341 342 335 328 327 328 326 322 315 308 306 290 261 248 236 222 214 212 206 199 194
63 75 30 5 8 265 260 209 255 252 228 220 225 243 266 284 295 300 308 316 318 322 328 332 337 334 335 339 342 340 334 330 327 325 324 326 324 319 319 314 285 259 238 227 214 211 211 201 198
76 119 142 202 249 290 315 251 260 267 237 219 218 237 271 288 290 292 293 301 308 315 322 330 335 331 334 340 337 335 337 334 328 328 326 323 316 310 315 313 296 282 255 230 214 212 211 202 201
110 94 150 131 175 296 294 290 303 224 247 237 243 254 272 281 289 291 295 302 307 312 317 325 331 331 335 340 338 338 341 342 338 334 336 333 328 324 332 329 321 309 288 246 212 208 209 202 205
102 138 94 101 119 303 302 289 266 254 247 244 242 247 262 277 286 292 298 301 306 307 312 326 333 328 331 340 343 344 341 342 340 342 346 342 337 336 336 338 332 322 316 285 218 202 202 195 200
103 85 98 104 143 157 294 280 232 230 231 227 233 237 250 264 273 280 290 297 305 313 322 331 335 337 340 342 341 345 344 344 347 351 348 343 339 341 344 340 337 336 339 332 260 186 176 188 194
165 154 144 143 209 166 198 270 270 245 242 223 230 237 246 258 267 275 286 301 312 319 324 329 331 334 335 338 344 346 345 348 354 354 353 350 348 348 347 344 349 352 352 350 13 181 173 175 187